Wind_Speed
30 30 29 29 28 27 26 26 25 24 23 23 22 22 21 21 21 21 20 20 20 20 20 20 20 20 19 19 19 18 18 18 18 18 18 18 18 18 18 18 19 19 19
32 32 31 30 30 29 28 27 27 26 25 25 24 24 23 23 23 22 22 22 22 22 22 21 21 20 20 20 20 19 19 19 19 19 19 19 19 19 19 19 20 20 20
34 34 32 32 31 31 30 30 29 28 27 26 26 25 25 25 25 24 24 24 24 23 23 22 22 21 21 20 20 20 21 21 21 20 20 20 20 20 20 21 21 21 21
36 35 35 33 33 33 32 32 31 30 29 28 28 27 27 26 26 26 26 25 25 24 24 24 23 22 22 21 22 21 22 22 22 22 21 21 21 21 21 22 22 22 21
40 38 37 36 36 35 34 34 33 32 31 30 30 30 29 28 28 28 28 27 26 25 25 25 25 24 23 23 23 23 23 23 23 22 22 22 23 23 22 23 23 23 22
41 40 39 39 38 37 36 36 35 34 33 33 32 31 31 31 30 29 29 28 28 27 26 26 26 25 25 25 24 24 24 24 23 23 23 23 24 24 24 24 24 24 24
43 41 41 39 38 38 38 38 37 36 35 34 33 32 32 32 32 31 30 29 28 28 28 27 27 26 26 25 25 25 25 25 24 24 25 25 25 26 26 26 26 26 26
43 42 42 40 39 38 38 38 38 38 36 36 35 34 33 32 32 32 31 30 29 29 29 28 28 27 27 26 26 25 25 25 25 26 26 26 27 27 27 28 28 28 28
44 43 43 42 41 39 38 38 39 39 38 37 37 36 35 34 33 32 31 30 29 30 30 29 28 28 28 28 27 27 26 26 27 27 28 28 28 28 28 29 29 29 30
44 43 44 44 43 42 42 40 40 40 39 38 37 37 37 35 35 33 32 31 31 31 30 30 30 29 29 29 29 28 28 28 28 29 29 29 29 29 30 30 31 31 31
44 44 43 44 45 44 44 43 41 41 41 40 38 38 37 36 35 34 34 33 32 32 31 31 31 31 31 31 31 31 30 30 30 30 31 31 31 31 32 32 33 33 34
45 45 44 44 44 45 45 44 43 42 42 41 41 40 38 37 36 36 35 34 34 33 33 32 32 32 32 32 32 33 33 33 33 33 33 34 34 34 34 35 36 36 36
46 45 45 44 43 44 45 45 45 44 43 42 42 41 41 40 38 39 38 37 35 34 34 34 34 34 34 34 34 34 35 35 35 35 35 35 36 36 37 37 38 38 38
48 47 47 45 45 45 45 46 46 46 46 44 43 43 42 42 41 41 41 40 39 37 36 36 36 36 35 35 35 36 36 36 36 37 37 37 38 38 39 39 39 40 40
49 48 49 49 47 47 47 46 46 46 46 45 45 44 43 43 43 43 43 42 41 40 39 39 38 37 37 37 37 37 37 37 37 37 38 39 39 40 40 40 40 40 40
49 49 49 50 49 48 47 47 47 48 48 48 47 46 45 43 43 43 43 43 43 42 41 40 40 40 39 38 38 38 38 38 37 38 39 40 41 41 41 41 41 41 41
51 51 49 49 49 50 49 49 49 49 48 48 47 47 47 45 44 44 44 44 44 44 43 42 42 41 41 41 40 40 40 40 40 41 41 41 42 42 42 42 42 42 42
51 51 51 50 49 50 51 50 49 49 48 48 48 47 47 46 45 45 46 45 45 44 45 44 43 42 41 41 42 42 42 42 42 42 42 43 43 43 42 42 42 42 42
51 52 53 53 52 51 50 51 50 50 49 48 48 47 47 47 47 47 46 46 46 46 45 45 43 42 42 42 43 43 43 43 44 44 43 43 43 42 42 41 41 41 41
51 51 52 52 51 50 50 50 50 49 49 49 49 48 48 48 48 49 48 47 47 47 47 46 46 44 44 44 44 44 44 44 44 44 44 43 43 43 43 42 42 42 42
50 51 50 49 49 50 50 50 51 51 50 50 50 50 49 49 49 49 49 49 48 48 48 48 48 48 48 47 47 46 46 45 45 45 45 44 44 44 44 43 43 43 43
49 49 49 48 48 49 50 51 51 51 52 51 51 51 51 51 50 50 50 51 50 50 50 50 50 50 49 49 49 48 47 47 46 45 46 45 45 45 45 45 45 44 44
48 49 48 48 48 48 49 50 51 51 51 51 52 52 52 53 53 52 52 52 51 50 50 50 50 50 50 50 49 48 47 47 47 46 47 46 46 45 45 46 45 45 44
47 47 47 47 47 48 48 49 49 49 49 50 51 52 52 53 53 53 53 52 52 51 51 51 51 50 50 50 49 48 48 48 47 47 47 47 47 46 46 45 45 45 45
46 46 46 45 46 47 48 48 48 48 48 49 49 51 52 53 53 53 53 53 53 52 52 52 51 50 50 50 49 48 48 48 47 47 48 47 47 47 47 46 45 46 46
45 44 44 44 44 45 45 46 47 48 48 48 48 49 49 50 51 52 53 54 54 52 52 52 51 50 50 50 49 49 48 48 47 48 48 48 47 47 47 47 47 48 48
Wind_Direction
243 244 245 246 248 249 251 252 253 255 257 258 258 257 257 260 262 264 266 268 270 273 276 279 281 282 282 283 285 287 289 290 291 294 296 297 299 299 300 302 304 305 305
244 244 245 245 247 248 250 252 252 254 256 257 258 258 258 258 260 263 265 266 268 271 274 276 279 281 281 283 284 285 286 287 289 290 293 296 297 297 297 300 302 304 305
243 243 244 245 246 248 249 250 251 253 254 256 257 258 259 259 260 262 265 266 268 269 272 275 277 279 281 281 281 283 285 286 286 288 289 292 293 294 295 298 300 301 303
242 243 245 246 247 248 249 251 251 252 253 254 256 257 258 260 262 262 264 266 267 268 270 272 274 276 279 279 281 283 285 285 285 286 287 289 291 292 294 296 297 299 300
243 244 245 247 248 249 249 250 250 251 252 253 256 257 259 260 262 263 263 264 265 267 268 269 272 274 275 277 280 282 283 285 286 286 286 288 289 290 292 293 295 296 297
244 245 246 247 248 248 249 249 250 250 251 252 254 256 258 260 263 263 263 263 264 265 266 269 271 272 274 276 279 281 282 285 286 285 285 286 288 289 290 292 293 294 295
244 245 246 245 246 247 247 247 249 250 251 252 253 255 258 259 261 261 262 263 264 264 266 268 270 271 273 275 277 280 282 283 284 285 284 285 287 288 289 290 291 292 293
244 244 245 245 244 245 246 248 249 250 250 251 253 255 256 257 258 260 261 261 263 264 265 268 268 270 272 273 275 278 280 281 283 283 285 285 286 287 288 289 290 290 291
243 244 244 244 244 244 245 247 249 249 250 251 253 254 255 257 258 258 258 260 261 262 264 266 268 269 271 272 275 277 278 280 281 282 283 285 286 286 288 288 289 290 290
244 245 245 244 244 244 246 247 248 250 249 251 254 254 255 256 257 257 258 258 259 261 262 264 267 269 270 271 273 276 277 278 280 281 283 284 285 286 286 288 289 290 290
245 245 246 246 246 246 246 246 247 248 250 252 253 254 253 254 256 257 258 258 260 261 262 263 266 268 270 271 273 275 276 277 279 281 282 283 284 285 286 287 288 289 290
245 245 245 246 247 246 245 246 246 248 250 252 253 253 253 254 256 257 258 259 260 261 261 263 266 268 270 272 273 274 275 276 278 280 281 282 283 285 286 287 288 288 288
244 244 244 245 245 245 245 246 248 249 251 252 253 253 254 254 255 257 258 258 259 259 261 263 266 267 268 271 273 274 276 276 277 278 280 281 282 283 285 287 287 288 287
245 245 245 246 245 245 246 247 248 250 251 251 252 253 254 254 255 257 258 258 258 260 261 263 265 266 268 269 271 274 276 276 277 278 279 280 281 282 284 285 286 287 287
245 246 247 248 248 248 249 250 251 251 252 252 252 253 254 254 255 257 259 259 259 260 261 263 265 267 268 270 271 272 274 275 277 278 279 280 281 282 283 284 285 285 286
247 248 248 247 248 249 250 251 251 250 252 252 251 252 253 254 255 257 258 260 260 261 262 263 266 268 268 269 270 271 273 275 276 278 279 280 281 282 283 283 284 285 285
247 248 248 247 247 248 249 250 251 250 251 251 251 251 251 254 256 257 258 260 261 261 262 264 266 267 268 269 270 271 274 275 276 278 279 281 281 282 282 282 283 285 286
248 247 248 248 248 249 249 249 250 250 251 251 251 251 251 253 256 257 258 260 261 262 263 264 265 265 267 268 270 272 273 275 276 277 279 280 281 282 282 282 283 284 286
247 247 248 248 248 248 249 249 249 250 251 251 251 251 252 253 254 256 258 260 261 261 263 264 265 266 267 269 271 272 274 275 277 277 279 280 281 281 281 281 283 284 285
248 248 248 249 248 248 248 249 248 249 250 251 251 252 253 254 255 257 258 260 261 261 262 264 265 266 268 269 270 272 273 275 276 277 279 279 280 280 281 281 282 283 284
250 249 249 249 249 248 249 249 249 250 251 252 253 254 254 255 256 257 258 260 261 261 262 263 264 266 268 269 270 271 272 273 275 276 278 278 278 279 280 280 282 282 284
250 251 251 250 251 251 251 251 251 251 252 254 254 254 255 255 256 257 258 259 261 262 262 263 264 266 267 269 270 270 271 272 274 276 276 277 277 278 279 280 281 282 283
252 252 253 252 253 252 252 252 252 253 254 254 254 255 255 255 256 257 258 259 260 261 262 263 264 266 267 268 269 270 271 273 274 275 276 276 276 277 278 279 280 281 282
252 252 253 253 253 253 253 253 253 254 255 255 255 255 255 256 257 257 257 258 258 260 262 263 264 265 266 268 269 270 270 271 273 274 275 275 275 276 277 278 279 280 281
252 252 252 253 253 252 252 252 253 254 255 256 256 256 256 256 256 256 256 257 258 260 260 262 264 265 265 267 268 269 270 271 272 272 273 274 274 275 276 278 279 280 280
252 252 252 252 251 252 252 252 253 253 254 255 255 255 255 255 256 255 256 257 258 259 260 260 261 263 265 266 267 268 270 271 272 272 272 273 274 275 275 276 278 279 280
Height
5809 5812 5814 5817 5819 5821 5823 5825 5826 5828 5829 5831 5832 5833 5835 5835 5836 5837 5838 5838 5839 5839 5839 5839 5839 5839 5839 5838 5838 5838 5837 5837 5836 5835 5834 5833 5832 5831 5830 5829 5828 5826 5825
5802 5805 5808 5810 5813 5815 5817 5819 5821 5822 5824 5825 5827 5828 5829 5830 5831 5832 5833 5834 5834 5835 5835 5835 5835 5835 5834 5834 5834 5833 5833 5833 5832 5831 5830 5829 5828 5827 5826 5825 5824 5822 5821
5795 5798 5801 5803 5806 5808 5811 5812 5814 5816 5818 5820 5821 5823 5824 5825 5826 5827 5828 5829 5829 5829 5830 5830 5830 5830 5830 5829 5829 5829 5828 5828 5828 5827 5826 5825 5824 5823 5822 5821 5820 5818 5817
5787 5790 5793 5796 5799 5801 5803 5806 5808 5810 5812 5814 5815 5817 5818 5819 5820 5821 5822 5823 5823 5824 5824 5825 5825 5825 5825 5824 5824 5824 5824 5823 5823 5822 5821 5821 5820 5819 5818 5816 5815 5814 5812
5779 5782 5785 5788 5791 5794 5796 5798 5800 5803 5805 5807 5808 5810 5811 5813 5813 5815 5816 5817 5817 5818 5818 5819 5819 5819 5819 5819 5819 5819 5818 5818 5817 5817 5816 5816 5815 5814 5813 5812 5810 5809 5808
5769 5773 5776 5780 5782 5785 5788 5790 5793 5795 5797 5799 5801 5803 5804 5806 5807 5808 5809 5810 5811 5812 5812 5813 5813 5814 5814 5814 5814 5813 5813 5812 5812 5811 5811 5810 5809 5809 5807 5806 5805 5804 5802
5760 5764 5767 5770 5773 5776 5779 5782 5784 5787 5789 5791 5793 5795 5797 5798 5800 5801 5802 5803 5804 5805 5806 5806 5807 5807 5808 5808 5808 5808 5807 5807 5806 5806 5805 5804 5804 5803 5802 5800 5799 5798 5797
5750 5754 5758 5761 5764 5767 5770 5773 5775 5778 5781 5783 5785 5787 5789 5792 5792 5794 5795 5796 5797 5798 5799 5800 5800 5801 5801 5802 5802 5802 5801 5801 5800 5799 5799 5798 5798 5797 5796 5794 5793 5792 5790
5740 5744 5748 5751 5754 5757 5760 5763 5766 5769 5772 5774 5776 5779 5781 5783 5784 5786 5787 5789 5790 5791 5792 5793 5793 5794 5794 5795 5795 5795 5795 5794 5794 5793 5793 5792 5791 5790 5789 5788 5786 5785 5783
5730 5733 5737 5741 5744 5748 5751 5753 5756 5759 5762 5765 5767 5770 5772 5774 5776 5778 5780 5781 5782 5784 5784 5785 5786 5786 5787 5787 5788 5788 5788 5787 5787 5786 5786 5785 5784 5783 5782 5780 5779 5777 5776
5720 5723 5726 5730 5734 5738 5741 5744 5747 5750 5752 5755 5758 5760 5763 5765 5767 5769 5771 5773 5774 5775 5776 5777 5778 5779 5779 5780 5780 5780 5780 5780 5780 5779 5778 5777 5776 5775 5774 5773 5771 5769 5768
5710 5713 5716 5720 5723 5727 5731 5734 5737 5740 5743 5746 5749 5751 5754 5756 5758 5760 5762 5764 5765 5767 5768 5769 5770 5771 5771 5772 5772 5772 5772 5772 5771 5771 5770 5769 5768 5767 5766 5764 5763 5761 5759
5699 5703 5706 5710 5713 5716 5720 5723 5727 5730 5732 5735 5738 5741 5744 5746 5748 5750 5752 5754 5756 5758 5759 5760 5761 5762 5762 5763 5763 5763 5763 5763 5762 5762 5761 5760 5759 5758 5757 5755 5754 5752 5750
5688 5692 5695 5699 5702 5706 5709 5712 5716 5719 5722 5725 5728 5731 5733 5736 5738 5740 5742 5745 5747 5749 5750 5751 5752 5753 5753 5754 5754 5754 5754 5754 5753 5752 5751 5751 5749 5748 5747 5745 5744 5742 5740
5676 5680 5684 5688 5691 5694 5698 5701 5705 5707 5711 5713 5717 5720 5723 5725 5728 5730 5732 5734 5737 5739 5741 5742 5742 5743 5743 5744 5744 5744 5744 5744 5743 5742 5741 5740 5739 5738 5736 5735 5733 5731 5730
5664 5668 5672 5676 5679 5683 5686 5689 5693 5696 5699 5702 5705 5708 5711 5714 5717 5719 5721 5723 5725 5728 5730 5732 5732 5733 5733 5733 5734 5734 5734 5733 5733 5732 5731 5730 5728 5727 5725 5724 5722 5721 5719
5652 5656 5659 5663 5667 5671 5674 5677 5680 5684 5687 5690 5693 5696 5699 5702 5705 5707 5709 5711 5713 5716 5718 5721 5721 5722 5722 5723 5723 5723 5723 5723 5722 5721 5720 5719 5717 5716 5714 5712 5711 5709 5707
5640 5643 5646 5650 5654 5657 5661 5665 5668 5671 5675 5678 5681 5684 5687 5690 5693 5695 5698 5700 5702 5704 5706 5709 5710 5710 5711 5711 5712 5712 5712 5711 5711 5710 5708 5707 5705 5704 5702 5701 5699 5697 5696
5627 5630 5633 5637 5640 5644 5648 5652 5656 5659 5662 5666 5669 5672 5675 5678 5681 5683 5686 5688 5690 5692 5694 5696 5698 5699 5699 5700 5700 5700 5699 5699 5699 5698 5696 5695 5693 5692 5691 5689 5688 5686 5685
5614 5617 5620 5623 5627 5631 5635 5639 5643 5646 5649 5653 5656 5659 5662 5665 5668 5671 5673 5676 5678 5680 5682 5684 5685 5686 5687 5687 5687 5687 5687 5687 5686 5685 5684 5683 5682 5680 5679 5678 5677 5675 5673
5601 5604 5607 5611 5614 5618 5622 5625 5629 5633 5636 5639 5642 5645 5649 5652 5655 5658 5661 5663 5665 5667 5669 5670 5672 5673 5674 5675 5675 5675 5675 5674 5674 5673 5672 5671 5670 5669 5667 5666 5665 5663 5662
5588 5591 5594 5598 5601 5605 5608 5611 5615 5619 5622 5626 5629 5632 5635 5638 5641 5644 5647 5649 5652 5654 5655 5657 5659 5660 5661 5661 5662 5662 5661 5662 5662 5661 5659 5659 5658 5657 5655 5654 5653 5652 5650
5575 5578 5581 5585 5589 5592 5595 5598 5601 5605 5608 5612 5615 5618 5621 5624 5627 5630 5633 5635 5637 5639 5641 5643 5645 5646 5647 5648 5648 5649 5648 5647 5648 5647 5646 5646 5645 5644 5643 5642 5640 5639 5638
5563 5566 5569 5572 5575 5578 5581 5584 5587 5591 5594 5597 5601 5604 5607 5610 5612 5615 5618 5621 5623 5625 5628 5629 5631 5632 5632 5633 5633 5634 5634 5634 5634 5633 5633 5633 5632 5632 5630 5629 5628 5626 5625
5550 5553 5556 5558 5561 5565 5568 5571 5574 5577 5581 5584 5586 5589 5592 5595 5598 5601 5604 5607 5609 5611 5612 5614 5616 5617 5618 5619 5619 5620 5620 5620 5620 5620 5619 5619 5619 5618 5618 5617 5615 5614 5612
5538 5540 5543 5546 5548 5551 5554 5557 5560 5564 5568 5571 5573 5576 5578 5581 5583 5585 5588 5591 5594 5596 5598 5600 5601 5603 5604 5605 5605 5606 5606 5606 5606 5607 5607 5606 5606 5605 5605 5605 5603 5601 5599